[[{"header":{"parameterUnit":"m.s-1","parameterCategory":1,"la1":30.2991,"la2":30.254,"lo1":-89.0895,"lo2":-89.0444,"dy":0.0017,"dx":0.0017,"nx":28,"ny":28,"refTime":"2024-07-07T21:00:00:Z","depth":0,"parameterNumber":2,"parameterNumberName":"U-component_of_WINDS"},"data":[0,0,0,0,0,0,0,0,0,0,0,0,0,0,0,0,0,0,0,0,0,0,0,0,0,0,0,0,0,0,0,0,0,0,0,0,0,0,0,0,0,0,0,0,0,0,0,0,0,0,0,0,0,0,0,0,0,0,-0.5267,-0.5266,0,-0.5178,-0.5177,-0.5176,-0.5108,-0.5108,-0.5107,-0.5107,-0.5016,-0.5014,-0.5012,0,0,0,0,0,0,0,0,0,0,0,0,0,-0.5379,-0.5378,-0.5267,-0.5266,-0.5265,-0.5178,-0.5177,-0.5176,-0.5109,-0.5108,-0.5107,-0.5106,-0.5016,-0.5014,-0.5012,0,0,0,0,0,0,0,0,0,0,0,0,0,-0.5315,-0.5377,-0.5267,-0.5221,-0.5216,-0.5179,-0.5177,-0.5176,-0.5109,-0.5108,-0.5107,-0.5106,-0.5017,-0.5014,-0.5012,-0.5014,0,0,-0.5003,-0.5002,0,0,0,0,0,0,0,0,-0.5318,-0.5311,-0.5229,-0.5224,-0.5218,-0.5153,-0.5183,-0.5121,-0.5109,-0.5149,-0.5107,-0.5105,-0.5062,-0.5056,-0.5041,-0.5009,-0.5005,-0.5003,-0.5001,-0.5,-0.4999,0,0,0,0,0,0,0,-0.5323,-0.5314,-0.5232,-0.5228,-0.5221,-0.5205,-0.5194,-0.5171,-0.5112,-0.5146,-0.5141,-0.5131,-0.5059,-0.5044,-0.5039,-0.5004,-0.5003,-0.5001,-0.4999,-0.4998,-0.497,-0.4971,0,0,0,0,0,0,-0.5335,-0.5318,-0.5235,-0.5229,-0.5267,-0.5203,-0.5192,-0.5175,-0.5112,-0.5102,-0.5132,-0.5128,-0.5049,-0.5042,-0.5035,-0.5034,-0.5,-0.4998,-0.4996,-0.4969,-0.497,-0.4971,0,0,0,0,0,0,-0.5337,-0.5328,-0.5238,-0.5272,-0.526,-0.5203,-0.5184,-0.5174,-0.5159,-0.5102,-0.5091,-0.5127,-0.5048,-0.5039,-0.502,-0.503,-0.4996,-0.4994,-0.4968,-0.497,-0.4971,-0.5032,0,0,0,0,0,0,-0.5341,-0.5329,-0.5329,-0.5273,-0.5258,-0.5224,-0.5185,-0.5173,-0.5154,-0.5148,-0.5094,-0.5085,-0.5047,-0.5024,-0.5017,-0.5026,-0.4992,-0.4967,-0.4969,-0.497,-0.5029,-0.5035,-0.5041,0,0,0,0,0,-0.5345,-0.535,-0.533,-0.532,-0.5257,-0.5225,-0.5217,-0.5173,-0.5155,-0.5155,-0.5118,-0.5086,-0.503,-0.5023,-0.5014,-0.5022,-0.4966,-0.4968,-0.497,-0.5026,-0.5034,-0.504,0,0,0,0,0,0,-0.5409,-0.5341,-0.5318,-0.5305,-0.5271,-0.5214,-0.5212,-0.5182,-0.5153,-0.5149,-0.5096,-0.5084,-0.5071,-0.5044,-0.5038,-0.5021,-0.4994,-0.4994,-0.5039,-0.5046,-0.5052,-0.5059,-0.4989,0,0,0,0,0,-0.5421,-0.5401,-0.5343,-0.5337,-0.5321,-0.527,-0.5254,-0.5223,-0.5186,-0.5172,-0.5134,-0.51,-0.5074,-0.5058,-0.5032,-0.5024,-0.5012,-0.5025,-0.5031,-0.5036,-0.5038,-0.5033,-0.5038,-0.4978,-0.4978,-0.4978,0,0,-0.5447,-0.5407,-0.5398,-0.5348,-0.5319,-0.53,-0.5258,-0.5239,-0.5224,-0.5169,-0.5149,-0.512,-0.5078,-0.5065,-0.5057,-0.5042,-0.5052,-0.5039,-0.5044,-0.5042,-0.5036,-0.5041,-0.5047,-0.498,-0.4979,-0.4979,0,0,-0.5484,-0.5451,-0.5443,-0.5414,-0.537,-0.5336,-0.5334,-0.5281,-0.526,-0.5238,-0.5197,-0.5178,-0.5135,-0.5108,-0.5088,-0.5115,-0.5085,-0.5107,-0.5139,-0.5135,-0.514,-0.5144,-0.5155,-0.5159,-0.5109,-0.5109,-0.5109,0,-0.5521,-0.549,-0.5443,-0.5426,-0.5406,-0.5355,-0.5347,-0.5321,-0.5271,-0.5258,-0.5242,-0.5187,-0.5155,-0.5136,-0.5142,-0.5128,-0.5124,-0.5114,-0.5143,-0.5146,-0.5149,-0.5159,-0.5163,-0.5112,-0.5112,-0.5111,-0.5111,0,-0.5539,-0.5518,-0.5517,-0.5469,-0.5449,-0.5437,-0.5388,-0.5373,-0.5344,-0.5312,-0.5291,-0.5251,-0.5216,-0.5209,-0.518,-0.5185,-0.5178,-0.5153,-0.5125,-0.5159,-0.5168,-0.5171,-0.5117,-0.5116,-0.5115,-0.5114,0,0,-0.5614,-0.5541,-0.5541,-0.552,-0.5467,-0.545,-0.5436,-0.5401,-0.539,-0.5357,-0.5344,-0.5309,-0.5286,-0.5264,-0.5232,-0.5228,-0.5254,-0.5204,-0.5202,-0.5215,-0.5258,-0.5278,-0.5283,-0.5233,-0.5233,-0.5234,-0.5262,0,-0.5644,-0.5615,-0.5572,-0.5558,-0.5539,-0.549,-0.5478,-0.5445,-0.5414,-0.5394,-0.536,-0.5336,-0.5307,-0.5294,-0.5287,-0.5252,-0.5262,-0.5249,-0.5221,-0.5221,-0.5235,-0.5287,-0.5308,-0.5337,-0.5265,-0.5265,-0.5266,0,-0.5675,-0.5645,-0.5629,-0.5579,-0.5569,-0.5559,-0.5524,-0.5505,-0.5466,-0.5444,-0.542,-0.5385,-0.5368,-0.5342,-0.5318,-0.531,-0.5296,-0.5277,-0.5277,-0.5274,-0.5247,-0.5287,-0.5345,-0.535,-0.527,-0.527,-0.527,0,-0.5733,-0.5688,-0.5673,-0.5656,-0.5597,-0.5591,-0.5566,-0.5526,-0.5509,-0.5478,-0.5467,-0.5435,-0.5418,-0.5394,-0.5352,-0.5336,-0.5333,-0.5303,-0.5315,-0.5316,-0.5318,-0.5318,-0.5376,-0.5307,-0.5307,-0.5307,-0.5306,0,-0.5771,-0.5764,-0.5699,-0.569,-0.568,-0.5631,-0.5623,-0.5593,-0.5559,-0.5544,-0.5499,-0.5486,-0.543,-0.541,-0.5377,-0.5363,-0.5355,-0.5337,-0.5329,-0.5342,-0.5345,-0.5333,-0.5331,-0.5308,-0.5307,-0.5307,-0.5307,0,-0.5835,-0.5791,-0.5772,-0.5717,-0.5703,-0.5699,-0.5652,-0.5642,-0.5609,-0.559,-0.5583,-0.5531,-0.5506,-0.5461,-0.5422,-0.54,-0.5393,-0.5377,-0.5406,-0.5401,-0.5417,-0.5416,-0.547,-0.5475,-0.5402,-0.5402,-0.5403,0,-0.5864,-0.5857,-0.5802,-0.5788,-0.5765,-0.5744,-0.5726,-0.5677,-0.566,-0.5616,-0.5611,-0.5582,-0.5557,-0.5518,-0.5477,-0.5448,-0.5432,-0.5453,-0.5428,-0.5442,-0.5434,-0.5436,-0.5435,-0.5459,-0.546,-0.5461,-0.5462,0,-0.5919,-0.5897,-0.5873,-0.5841,-0.5821,-0.5793,-0.5764,-0.5755,-0.57,-0.5683,-0.5657,-0.5637,-0.5598,-0.557,-0.5535,-0.5509,-0.5477,-0.547,-0.5471,-0.5486,-0.5503,-0.5495,-0.5424,-0.5469,-0.5468,-0.5468,-0.5468,-0.5467,-0.5966,-0.5959,-0.5919,-0.5893,-0.5866,-0.5839,-0.5827,-0.5793,-0.577,-0.5734,-0.5707,-0.5683,-0.5645,-0.5594,-0.5571,-0.5551,-0.5536,-0.5538,-0.5539,-0.554,-0.5546,-0.5505,-0.5544,-0.5544,-0.5544,-0.5544,-0.5543,0,-0.6021,-0.5993,-0.597,-0.593,-0.591,-0.588,-0.5846,-0.5832,-0.5811,-0.5778,-0.5754,-0.5724,-0.5697,-0.5654,-0.5624,-0.5617,-0.5601,-0.5611,-0.5611,-0.5606,-0.5561,-0.5563,-0.5624,-0.5624,-0.5624,-0.5624,-0.5624,-0.5624,-0.6047,-0.6032,-0.6006,-0.5978,-0.595,-0.5926,-0.5909,-0.5885,-0.5859,-0.5827,-0.5805,-0.5777,-0.574,-0.5707,-0.5681,-0.5669,-0.566,-0.5675,-0.5658,-0.5617,-0.5609,-0.5602,-0.5604,-0.5673,-0.5673,-0.5706,-0.5706,-0.5706]},{"header":{"parameterUnit":"m.s-1","parameterCategory":1,"la1":30.2991,"la2":30.254,"lo1":-89.0895,"lo2":-89.0444,"dy":0.0017,"dx":0.0017,"nx":28,"ny":28,"refTime":"2024-07-07T21:00:00:Z","depth":0,"parameterNumber":3,"parameterNumberName":"V-component_of_WINDS"},"data":[0,0,0,0,0,0,0,0,0,0,0,0,0,0,0,0,0,0,0,0,0,0,0,0,0,0,0,0,0,0,0,0,0,0,0,0,0,0,0,0,0,0,0,0,0,0,0,0,0,0,0,0,0,0,0,0,0,0,3.6762,3.6762,0,3.679,3.679,3.679,3.6738,3.6736,3.6734,3.6733,3.6759,3.6762,3.6764,0,0,0,0,0,0,0,0,0,0,0,0,0,3.6659,3.6661,3.6762,3.6762,3.6762,3.679,3.679,3.6791,3.6738,3.6736,3.6734,3.6732,3.6759,3.6761,3.6764,0,0,0,0,0,0,0,0,0,0,0,0,0,3.6697,3.6662,3.6762,3.674,3.6738,3.679,3.679,3.6791,3.6739,3.6736,3.6733,3.6731,3.6758,3.6761,3.6765,3.6838,0,0,3.6775,3.6777,0,0,0,0,0,0,0,0,3.6695,3.6701,3.6742,3.6741,3.6739,3.6758,3.6764,3.6807,3.6739,3.6738,3.6733,3.673,3.6761,3.6764,3.6775,3.684,3.6841,3.6775,3.6778,3.6779,3.678,0,0,0,0,0,0,0,3.6692,3.6699,3.6773,3.6743,3.6741,3.6727,3.673,3.6772,3.6764,3.6738,3.6734,3.6739,3.6759,3.6772,3.6775,3.6841,3.6775,3.6778,3.6781,3.6782,3.6965,3.6968,0,0,0,0,0,0,3.6693,3.6697,3.6772,3.6774,3.671,3.6731,3.6734,3.6754,3.6763,3.6762,3.6741,3.6736,3.6767,3.6771,3.6776,3.6861,3.6779,3.6782,3.6784,3.6963,3.6966,3.6969,0,0,0,0,0,0,3.6691,3.67,3.6771,3.6734,3.6742,3.6736,3.6759,3.6756,3.6768,3.6765,3.6763,3.6755,3.6765,3.6771,3.6823,3.6861,3.6784,3.6787,3.6959,3.6964,3.6968,3.7033,0,0,0,0,0,0,3.6688,3.67,3.6728,3.6736,3.6745,3.6818,3.6762,3.6759,3.6775,3.6769,3.6778,3.6777,3.6763,3.6818,3.6826,3.6865,3.679,3.6956,3.6961,3.6966,3.7027,3.7039,3.7049,0,0,0,0,0,3.6685,3.6746,3.673,3.6739,3.6781,3.6821,3.6826,3.681,3.6778,3.6806,3.6804,3.6777,3.6856,3.6824,3.6833,3.6873,3.6953,3.696,3.6966,3.7023,3.7037,3.7049,0,0,0,0,0,0,3.6743,3.6746,3.6729,3.6795,3.6808,3.6812,3.6847,3.6826,3.6847,3.6841,3.6819,3.6822,3.6877,3.688,3.6844,3.6943,3.6899,3.6908,3.6939,3.6953,3.6963,3.696,3.6793,0,0,0,0,0,3.6763,3.6797,3.6798,3.6855,3.6863,3.6854,3.6871,3.6857,3.687,3.6875,3.6876,3.6889,3.6916,3.6935,3.696,3.7028,3.7028,3.706,3.7071,3.7079,3.7086,3.712,3.7134,3.699,3.699,3.6989,0,0,3.6806,3.6812,3.6834,3.6867,3.6876,3.6909,3.6859,3.6897,3.6921,3.688,3.6929,3.6931,3.6943,3.7003,3.7029,3.7007,3.7126,3.7087,3.7094,3.7097,3.7128,3.7142,3.7154,3.6994,3.6993,3.6992,0,0,3.69,3.6909,3.6957,3.6967,3.698,3.6974,3.6986,3.6993,3.6992,3.7041,3.7011,3.7039,3.7087,3.7097,3.7108,3.7205,3.718,3.7214,3.7269,3.7303,3.7314,3.7324,3.7356,3.7369,3.7221,3.7221,3.7221,0,3.6951,3.7001,3.6984,3.7024,3.7038,3.7004,3.7051,3.7061,3.7082,3.7092,3.7068,3.7126,3.7133,3.7193,3.7217,3.7228,3.7239,3.7212,3.7314,3.7324,3.7333,3.7363,3.7376,3.7225,3.7225,3.7224,3.7224,0,3.7062,3.7097,3.7134,3.7155,3.7174,3.7218,3.7206,3.7227,3.7212,3.7207,3.7256,3.7263,3.7288,3.7301,3.7287,3.7359,3.7345,3.7318,3.7272,3.7351,3.7379,3.7391,3.7231,3.7229,3.7228,3.7227,0,0,3.7193,3.7204,3.7218,3.7226,3.7239,3.7265,3.7306,3.7331,3.7348,3.7364,3.7397,3.7438,3.7413,3.7425,3.7412,3.7442,3.7515,3.741,3.741,3.7428,3.7593,3.7613,3.7627,3.7499,3.7502,3.7503,3.7592,0,3.7285,3.7356,3.7341,3.7411,3.7442,3.7409,3.7445,3.7456,3.7453,3.7478,3.7474,3.7503,3.7468,3.7476,3.7504,3.7501,3.7548,3.7494,3.7528,3.7529,3.7524,3.7642,3.7663,3.7746,3.7603,3.7605,3.7606,0,3.7401,3.7421,3.7494,3.75,3.7512,3.7545,3.7566,3.7591,3.7602,3.7597,3.7612,3.7592,3.7631,3.7587,3.764,3.7603,3.7616,3.7617,3.762,3.7621,3.7571,3.7644,3.7772,3.7784,3.7624,3.7622,3.7621,0,3.7487,3.7532,3.7581,3.759,3.7599,3.7622,3.7626,3.7635,3.765,3.7668,3.7678,3.77,3.7712,3.773,3.7716,3.7685,3.777,3.7726,3.7766,3.7767,3.7784,3.7783,3.7914,3.7796,3.7796,3.7796,3.7796,0,3.759,3.7635,3.762,3.7649,3.7699,3.7681,3.773,3.773,3.7738,3.7766,3.774,3.7767,3.7748,3.7773,3.7763,3.7807,3.7813,3.781,3.7806,3.7811,3.7811,3.7818,3.7811,3.7799,3.7798,3.7798,3.7797,0,3.7694,3.7685,3.7736,3.774,3.7742,3.7778,3.778,3.7807,3.7803,3.7839,3.7846,3.7838,3.7866,3.7855,3.7885,3.7878,3.7934,3.7924,3.793,3.7927,3.7968,3.7963,3.8106,3.8123,3.7996,3.7997,3.7998,0,3.7759,3.7793,3.7801,3.7818,3.7824,3.7853,3.7868,3.7852,3.7869,3.7884,3.7908,3.7934,3.7954,3.8,3.7996,3.8019,3.8007,3.8056,3.8011,3.8014,3.8006,3.8003,3.8006,3.8064,3.8066,3.8067,3.8068,0,3.7875,3.7869,3.7893,3.7915,3.7935,3.7951,3.7965,3.7981,3.7965,3.7985,3.8014,3.8029,3.8059,3.8085,3.8104,3.8107,3.8085,3.8083,3.8093,3.8098,3.8099,3.8097,3.7953,3.8079,3.8078,3.8077,3.8077,3.8076,3.7961,3.7988,3.7998,3.8025,3.8033,3.8047,3.8072,3.807,3.8094,3.8117,3.8106,3.8139,3.8148,3.8171,3.8178,3.8202,3.8183,3.8199,3.8202,3.8206,3.821,3.8097,3.8206,3.8206,3.8206,3.8205,3.8205,0,3.8074,3.8078,3.8103,3.8123,3.8144,3.8122,3.8136,3.8154,3.8184,3.8194,3.8214,3.8246,3.827,3.8268,3.829,3.831,3.83,3.8316,3.8314,3.8314,3.8227,3.8215,3.8324,3.8324,3.8324,3.8324,3.8324,3.8324,3.8135,3.818,3.8175,3.8224,3.8228,3.826,3.8269,3.8281,3.8289,3.8326,3.8346,3.8345,3.835,3.8372,3.8393,3.8392,3.84,3.842,3.8415,3.8333,3.8321,3.831,3.8298,3.8422,3.8423,3.8499,3.85,3.8501]}]]